星链-37502(STARLINK-37502)

导读

STARLINK-37502(NORAD编号69263)是美国SpaceX公司星链(Starlink)星座中的一颗低轨通信卫星,隶属于SpaceX主导的全球低轨卫星互联网组网计划。作为星链大规模部署阶段的组网卫星之一,它运行于近地轨道,主要为全球用户提供高速低延迟宽带互联网接入服务,尤其支持偏远地区网络覆盖、移动互联网连接等场景。该卫星采用星链标准平台设计,遵循SpaceX的空间交通协调规范,会发布轨道数据保障太空飞行安全,目前承担着星座组网运营与通信服务任务。

Basic Information
目录编号:
69263
目录名称:
STARLINK-37502
国际标识:
2026-117AB
轨道中心:
EARTH
卫星名称:
星链-37502
卫星全名:
星链-37502(STARLINK-37502)
卫星状态:
在轨 (已飞行99 天)
发射日期:
2026-05-29 UTC
国别 :
美国 (US)
星等 :
--
Orbit Information
数据来源 国际轨道数据 AOE轨道数据
星历时间 2026-09-05T12:28:02+0800
7小时前
查看轨道信息
2026-09-03T00:00:00+0800
2天前
查看轨道信息
半长轴 6840.842km 6840.893km
偏心率 0.0001543 0.0001335
轨道倾角 53.158° 53.156°
近地点辐角 87.357° 62.291°
升交点赤经 225.493° 237.274°
平近点角 272.761° 52.954°
近地点 461.649km 461.842km
远地点 463.761km 463.67km
周期 93.848分钟 93.849分钟
每日圈数 15.343996 15.343823
Detailed Information
固有亮度:
5
最大亮度:
2.5
卫星平台:
Starlink V1.0
覆盖范围:
全球
运营商:
太空探索技术公司
运营商所在国:
美国
制造商(研发单位):
太空探索技术公司
制造商所在国:
美国
使用方式:
暂无
Satellite Introduction
Starlink 计划是 SpaceX 推出的全球卫星互联网项目,通过发射低轨道卫星,为全球尤其是偏远地区提供高速、低延迟的互联网服务。自 2019 年起,Starlink 已部署数千颗卫星,旨在缩小全球数字鸿沟,推动互联网普及。该项目还为军事、航空等行业提供通信支持,带来广泛经济效益。
2D Orbit Map
3D Orbit Map
Orbit Altitude Analysis Chart
Orbit Inclination Analysis Chart
Orbit Comprehensive Analysis Chart
View Comprehensive Chart
Conjunction Data List
Event ID Objects TCA Miss Dist (km) Collision Risk Probability Collision Risk Index (CRI) Action
CDM_260907-210306-029006-926321
2026-09-07T
21:03:03+0000
0.844 km
远距离
2.891694E-5 中风险 0.64
CDM_260905-124006-190106-926321
OBJECT H (61901)
2026-09-05T
12:40:49+0000
1.855 km
极远距离
3.0715E-6 低风险 0.45
CDM_260906-111806-580706-926321
2026-09-06T
11:18:20+0000
2.746 km
极远距离
1.375854E-6 低风险 0.38
CDM_260907-192906-029006-926321
2026-09-07T
19:29:15+0000
2.973 km
极远距离
8.995677E-7 极低风险 0.34